AirNav   Air Wisconsin Up To $57,000 Bonus
 
 1104 users online  

06A Moton Field Municipal Airport
Tuskegee, Alabama, USA

GOING TO TUSKEGEE?


FAA INFORMATION EFFECTIVE 15 AUGUST 2019

Location

FAA Identifier: 06A
Lat/Long: 32-27-37.7000N 085-40-48.1000W
32-27.628333N 085-40.801667W
32.4604722,-85.6800278
(estimated)
Elevation: 264 ft. / 80.5 m (surveyed)
Variation: 03W (2010)
From city: 3 miles N of TUSKEGEE, AL
Time zone: UTC -5 (UTC -6 during Standard Time)
Zip code: 36083

Airport Operations

Airport use: Open to the public
Activation date: 11/1941
Control tower: no
ARTCC: ATLANTA CENTER
FSS: ANNISTON FLIGHT SERVICE STATION
NOTAMs facility: ANB (NOTAM-D service available)
Attendance: MON-FRI 0730-1700, ALL SAT-SUN 0730-1700
Wind indicator: lighted
Segmented circle: yes
Lights: ACTVT MIRL RY 13/31 AND PAPI RYS 13 & 31 - CTAF.
Beacon: white-green (lighted land airport)
Operates sunset to sunrise.

Airport Communications

CTAF/UNICOM: 122.8
ATLANTA APPROACH: 125.5 126.55 ;7000 & ABV
ATLANTA DEPARTURE: 125.5 126.55 ;7000 & ABV
WX AWOS-3PT at AUO (16 nm NE): 132.575 (334-501-0387)
  • APCH/DEP SVC PRVDD BY ATLANTA LARGE TRACON 125.5 (0515-2200) OTHER TIMES ATLANTA ARTCC 120.45/298.850 (COLUMBUS RCAG).

Nearby radio navigation aids

VOR radial/distance  VOR name  Freq  Var
TGEr198/1.6TUSKEGEE VOR/DME117.3002E
CSGr254/34.8COLUMBUS VORTAC117.1001E
MGMr063/35.4MONTGOMERY VORTAC112.1003E
LSFr284/35.6LAWSON VOR/DME111.4002W

 
NDB name  Hdg/Dist  Freq  Var  ID
LAWSON289/34.833502WAWS .- .-- ...

Airport Services

Fuel available: 100LL JET-A+
Parking: hangars and tiedowns
Airframe service: MAJOR
Powerplant service: MAJOR
Bottled oxygen: NONE
Bulk oxygen: HIGH/LOW

Runway Information

Runway 13/31

Dimensions: 5005 x 100 ft. / 1526 x 30 m
Surface: asphalt, in fair condition
Weight bearing capacity: 
Single wheel: 28.5
Runway edge lights: medium intensity
Runway edge markings: RWY MARKINGS ARE FADED AND CVRD IN ALGAE.
RUNWAY 13  RUNWAY 31
Latitude: 32-27.886912N32-27.369283N
Longitude: 085-41.181352W085-40.423030W
Elevation: 263.9 ft.263.8 ft.
Traffic pattern: leftleft
Runway heading: 132 magnetic, 129 true312 magnetic, 309 true
Markings: nonprecision, in poor conditionnonprecision, in poor condition
Visual slope indicator: 2-light PAPI on left (3.00 degrees glide path)2-light PAPI on left (3.00 degrees glide path)
Touchdown point: yes, no lightsyes, no lights
Obstructions: brush, 34:1 slope to clear24 ft. trees, 683 ft. from runway, 29 ft. left of centerline, 20:1 slope to clear

Airport Ownership and Management from official FAA records

Ownership: Publicly-owned
Owner: CITY OF TUSKEGEE
101 FONVILLE ST
TUSKEGEE, AL 36083
Phone 334-727-2180
Manager: MELODY WINSTON
1721 GENERAL B.O. DAVIS DRIVE
TUSKEGEE, AL 36083
Phone 334-727-6485
AFTER HOURS FUEL CALL 334-727-6485.

Airport Operational Statistics

Aircraft based on the field: 11
Single engine airplanes: 11
    
Aircraft operations: avg 53/day *
66% transient general aviation
34% local general aviation
* for 12-month period ending 13 August 2019

Additional Remarks

PARL TWY LGTD FULL LEN.
WILDLIFE ON & INVOF ARPT.
FOR CD CTC ATLANTA APCH AT 678-364-6132, WHEN APCH CLSD CTC ATLANTA ARTCC AT 770-210-7692.

Instrument Procedures

NOTE: All procedures below are presented as PDF files. If you need a reader for these files, you should download the free Adobe Reader.

NOT FOR NAVIGATION. Please procure official charts for flight.
FAA instrument procedures published for use from 15 August 2019 at 0901Z to 12 September 2019 at 0900Z.

 
IAPs - Instrument Approach Procedures
RNAV (GPS) RWY 13   download (235KB)
RNAV (GPS) RWY 31   download (217KB)
VOR-A   download (179KB)
NOTE: Special Take-Off Minimums/Departure Procedures apply   download (189KB)

Other nearby airports with instrument procedures:

KAUO - Auburn University Regional Airport (16 nm NE)
KALX - Thomas C Russell Field Airport (31 nm NW)
7A3 - Lanett Municipal Airport (31 nm NE)
08A - Wetumpka Municipal Airport (33 nm W)
KMXF - Maxwell Air Force Base (35 nm W)
 
Loc | Ops | Rwys | IFR | FBO | Links
Com | Nav | Svcs | Stats | Notes
Area around 06A (Moton Field Municipal Airport)
 
Road maps at: MapQuest Bing Google
 
Aerial photo
WARNING: Photo may not be current or correct
Aerial photo of 06A (Moton Field Municipal Airport)
Photo courtesy of Golden Eagle Aviation
Photo taken 23-Dec-2010
looking northwest.

Do you have a better or more recent aerial photo of Moton Field Municipal Airport that you would like to share? If so, please send us your photo.

 
Sectional chart

 
Airport diagram
CAUTION: Diagram may not be current
Diagram of 06A (Moton Field Municipal Airport)
 
Airport distance calculator
Flying to Moton Field Municipal Airport? Find the distance to fly.

From to 06A

Sunrise and sunset
Times for 17-Aug-2019
 Local
(UTC-5)
 Zulu
(UTC)
Morning civil twilight05:4310:43
Sunrise06:0911:09
Sunset19:2500:25
Evening civil twilight19:5000:50

Current date and time
Zulu (UTC)  17-Aug-2019 17:56:55
Local (UTC-5)  17-Aug-2019 12:56:55
 
METAR
KAUO 
16nm NE 
171656Z AUTO 00000KT 10SM CLR 33/16 A3004 RMK AO2 SLP176 T03330156
KALX 
31nm NW 
171735Z AUTO 35009KT 10SM CLR 34/17 A3001 RMK AO2 LTG DSNT E AND SE T03360167
TAF
KMXF 
35nm W 
171100Z 1711/1817 VRB06KT 9999 SKC QNH2986INS TX37/1719Z TN21/1712Z
KLSF 
36nm E 
170120Z 1701/1807 VRB06KT 9999 FEW100 QNH2984INS TEMPO 1708/1712 1600 BR BECMG 1715/1716 VRB06KT 9999 FEW050 QNH2991INS TX37/1720Z TN24/1711Z LAST NO AMDS AFT 1703 NEXT 1909
KCSG 
37nm E 
171139Z 1712/1812 06003KT P6SM SKC FM171500 35004KT P6SM SKC FM171700 33006KT P6SM SCT060 FM180000 10004KT P6SM FEW070 FM180800 20004KT P6SM FEW250
KMGM 
38nm W 
171141Z 1712/1812 00000KT P6SM SKC FM171800 31006KT P6SM SKC FM172200 03006KT P6SM SKC FM180000 VRB02KT P6SM SKC
KTOI 
40nm SW 
171255Z 1713/1812 00000KT P6SM SKC FM171800 31006KT P6SM SKC FM172100 02006KT P6SM SKC FM180000 00000KT P6SM SKC
NOTAMs
Click for the latest NOTAMs
NOTAMs are issued by the DoD/FAA and will open in a separate window not controlled by AirNav.

 

 
 

FBO, Fuel Providers, and Aircraft Ground Support

  
 Business Name 
 
 Contact 
 
 Services / Description 
 
Fuel Prices
 
Comments
  
Golden Eagle Aviation UNICOM 122.80
334-727-6485
[web site]
[email]
Aviation fuel, Aircraft parking (ramp or tiedown), Passenger terminal and lounge, Aircraft cleaning / washing / detailing, Catering, Pilot supplies, Rental cars, ...
More info and photos of Golden Eagle Aviation
 
AirBoss™ fuel program  
 
Shell
100LL Jet A
FS $4.24 $4.15 
GUARANTEED
AirBossMEMBER
PRICING
FS $4.19 $4.10 
 
   27 read write
FS=Full service
Update Fuel Prices
 

Would you like to see your business listed on this page?

 If your business provides an interesting product or service to pilots, flight crews, aircraft, or users of the Moton Field Municipal Airport, you should consider listing it here.  To start the listing process, click on the button below
 
Add a business
 

Other Pages about Moton Field Municipal Airport

Tuskegee Airmen National Historic Site page from the National Park Service
 
Update a link
 
Copyright © AirNav, LLC. All rights reserved. Privacy Policy  Contact